Погода в Брагине

Погода в Брагине : погода сейчас, прогноз погоды и архив. Всё, что Вы хотите узнать о погоде в Брагине!

Поиск расширенной информации на нашем сайте:

Другие новости

Новости СМИ2

Главная страница сайта

Новости сайта

03.07.2017

Напоминаем, что на нашем специализированном сайте Метеоцентр.Азия вы можете получить высокодетализированные автоматические прогнозы погоды по пунктам России, СНГ и мира в авиационном формате (включающие направление и скорость ветра, видимость, явления погоды, количество и форму облачности, нижнюю и верхнюю границу облачности).


Погода в Брагине - сегодня

Время (UTC), дата Ветер
(°,м/с) 
Видим.   Явления Облачность Т
(°С)
Тd
(°С)
f(%) Тe
(°С)
Pmin
(гПа)
dP
(гПа)
Po
(мм)
O2
(г/м3)
Тmin Tmax R s Состояние
почвы
06 14.10.18 тихо ()   30000 м    ясно 
+2.7 +0.7 87 +3  1033.2  0.1  764  305  -2.2         
09 14.10.18 тихо ()   30000 м    3/0 верхняя 
[Ci fib]
+15.7 +3.3 43 +16  1032.7  0.2  764  291           
12 14.10.18 300 (СЗ) 30000 м    4/0 верхняя 
[Ci fib]
+19.3 +2.1 32 +21  1031.1  -1.4  763  287           
15 14.10.18 тихо ()   30000 м    3/0 верхняя 
[Ci fib]
+15.9 +3.4 43 +16  1030.1  -1.2  762  290           
18 14.10.18 тихо ()   27000 м    3/0 верхняя 
[Ci fib]
+5.9 +2.5 79 +6  1030.7  0.1  762  300    +20.6       
06 15.10.18 тихо ()   26000 м    4/0 верхняя 
[Ci fib]
+4 +0.5 78 +4  1031.7  0.4  763  303  -2         
09 15.10.18 тихо ()   30000 м    5/0 верхняя 
[Ci fib]
+16.2 +9 62 +16  1031.8  763  289           
12 15.10.18 тихо ()   30000 м    3/0 верхняя 
[Ci fib]
+20.6 +5.8 38 +21  1029.9  -0.9  762  285           
15 15.10.18 тихо ()   30000 м    4/0 верхняя 
[Ci]
+15.8 +4.3 46 +16  1028.8  -1.3  761  289           
18 15.10.18 тихо ()   16000 м    ясно 
+6.9 +3.8 81 +7  1029.3  761  299    +21       
06 16.10.18 тихо ()   17000 м    ясно 
+5.8 +3.6 86 +6  1029.2  0.1  761  300  +0.9         
09 16.10.18 070 (В) 30000 м    ясно 
+19.1 +10.6 58 +23  1028.6  0.1  761  285           
12 16.10.18 080 (В) 30000 м    ясно 
+22.8 +9.3 42 +23  1027.6  -0.8  761  281           
15 16.10.18 160 (Ю) 30000 м    ясно 
+19.6 +8.8 50 +21  1026.4  -1.3  760  284           
18 16.10.18 тихо ()   18000 м    ясно 
+11.2 +8 81 +11  1027  0.1  760  293    +22.8       
06 17.10.18 тихо ()   5000 м  дымка  ясно 
+6.3 +5.5 95 +6  1027.8  0.5  760  298  +2.9         
09 17.10.18 тихо ()   21000 м    ясно 
+19.7 +10.1 54 +21  1027  -0.1  760  284           
12 17.10.18 тихо ()   30000 м    ясно 
+23.3 +9.4 41 +23  1025.8  -1  759  280           
15 17.10.18 тихо ()   30000 м    ясно 
+18.8 +9.8 56 +19  1025.2  -0.8  759  284           
18 17.10.18 тихо ()   15000 м    ясно 
+10.7 +7.9 83 +11  1025.7  759  293    +23.6       
06 18.10.18 тихо ()   12000 м    ясно 
+8.2 +5.7 84 +8  1024.8  -0.3  758  296  +3         
09 18.10.18 130 (ЮВ) 30000 м    ясно 
+19.4 +9.6 53 +21  1023.7  -0.5  758  283           
12 18.10.18 170 (Ю) 30000 м    ясно 
+22.4 +9.4 44 +23  1021.6  -1.9  756  280           
15 18.10.18 тихо ()   30000 м    ясно 
+18 +9.9 59 +19  1020.4  -1.4  755  284           
18 18.10.18 тихо ()   17000 м    ясно 
+8.6 +6.7 88 +9  1020.5  -0.4  755  294    +22.9       
Время (UTC), дата Ветер
(°,м/с) 
Видим.   Явления Облачность Т
(°С)
Тd
(°С)
f(%) Тe
(°С)
Pmin
(гПа)
dP
(гПа)
Po
(мм)
O2
(г/м3)
Тmin Tmax R s Состояние
почвы

Для получения пояснительной информации подведите курсор к названию столбца.

ПОГОДА в Брагине - архив

Всё, что Вы хотите узнать о погоде в Брагине - удобно и подробно!

Выберите нужную дату (начиная с 1 января 2015* года) и нажмите кнопку "Найти".
Будут отображены архивные сводки погоды по пункту Брагин, начиная с указанной даты.


Отображать данные в формате CSV (для использования в таблицах Excel)


Внимание! Наш архив погоды предназначен исключительно для личного некоммерческого использования в познавательных целях. Если Вам необходимы официальные справки о состоянии погоды (для производственных, юридических, коммерческих и т.п. целей), обращайтесь в органы Росгидромета.

*Примечание: данная дата относится к архиву по метеостанциям СССР (Россия, СНГ, Балтия).
Архив по метеостанциям Зарубежной Европы и Азии (кроме Китая) хранится 10 дней, по другим регионам земного шара (Китай, Африка, Америка, Австралия, Океания) - 1 день.

Брагин - район местоположения метеостанции


Название, широта, долгота, высота метеостанции:
Брагин 51.8°ш. 30.3°д. 116 м над ур. моря [Беларусь]

Дополнительная информация

В oтличие oт бoльшинства пoгoдных сайтoв мы публикуем пoдрoбную метеoинфoрмацию в детальнoм прoфессиoнальнoм фoрмате.

Характеристики температуры и влажнoсти вoздуха измеряются на высoте 2 м в тени вдали oт зданий и деревьев.
Скoрoсть ветра измеряется на высoте 10 м (на урoвне рoста челoвека скoрoсть ветра ниже в 1.5-2 раза). Если метеoстанция нахoдится в гoрoде или в лесу, тo скoрoсть ветра занижена на 2-4 м/с пo сравнению с oткрытым местoм. Скoрoсть ветра над акватoриями крупных рек и oзёр, а также на вершинах хoлмoв на 2-5 м/с выше, чем в oбычных услoвиях.
Атмoсфернoе давление в разных тoчках местнoсти мoжет значительнo oтличаться oт давления на метеoстанции, в зависимoсти oт услoвий рельефа (при пoдъёме на 10 м давление пoнижается примернo на 1 мм рт.ст.).